When you browse on this site, cookies collect data to enhance your experience and personalize the content and advertising you see.
Visit our Privacy Policy to learn more. By continuing to use the site, you agree to this use of cookies and data.
  • In Portugal
  • List of Countries
  • For 7 days
  • Water Temperature
  • Satellite Maps
  • Weather Map
  • Weather Widgets
  • user-avatar
    Login

    Hourly Weather Ashtarak

    Today, 13 December, Thursday

    Time Temperature Precipitation Wind Pressure Humidity
    00:00 +5°C° 1.4 mm 3 mps 651 mmHg 82%
    01:00 +4°C° 1.4 mm 3 mps 651 mmHg 83%
    02:00 +4°C° 1.4 mm 3 mps 651 mmHg 85%
    03:00 +4°C° 1.4 mm 3 mps 651 mmHg 86%
    04:00 +3°C° 0.6 mm 3 mps 651 mmHg 86%
    05:00 +3°C° 0.6 mm 4 mps 651 mmHg 86%
    06:00 +1°C° 0.6 mm 4 mps 651 mmHg 85%
    07:00 +3°C° 0.1 mm 4 mps 652 mmHg 83%
    08:00 +3°C° 0.1 mm 4 mps 652 mmHg 81%
    09:00 +3°C° 0.1 mm 4 mps 653 mmHg 79%
    10:00 +4°C° 0.2 mm 4 mps 653 mmHg 75%
    11:00 +4°C° 0.2 mm 4 mps 654 mmHg 71%
    12:00 +5°C° 0.2 mm 4 mps 654 mmHg 67%
    13:00 +4°C° 0.1 mm 4 mps 655 mmHg 64%
    14:00 +4°C° 0.1 mm 4 mps 655 mmHg 62%
    15:00 +4°C° 0.1 mm 4 mps 655 mmHg 60%
    16:00 +2°C° 0 mm 3 mps 656 mmHg 61%
    17:00 +1°C° 0 mm 3 mps 656 mmHg 63%
    18:00 -1°C° 0 mm 2 mps 657 mmHg 64%
    19:00 -1°C° 0 mm 2 mps 657 mmHg 65%
    20:00 -2°C° 0 mm 2 mps 658 mmHg 65%
    21:00 -3°C° 0 mm 2 mps 658 mmHg 65%
    22:00 -3°C° 0 mm 2 mps 658 mmHg 66%
    23:00 -3°C° 0 mm 2 mps 659 mmHg 66%

    Tomorrow, 14 December, Friday

    Time Temperature Precipitation Wind Pressure Humidity
    00:00 -4°C° 0 mm 2 mps 659 mmHg 66%
    01:00 -4°C° 0 mm 2 mps 659 mmHg 66%
    02:00 -4°C° 0 mm 2 mps 659 mmHg 65%
    03:00 -5°C° 0 mm 2 mps 659 mmHg 65%
    04:00 -5°C° 0 mm 2 mps 660 mmHg 65%
    05:00 -5°C° 0 mm 2 mps 660 mmHg 65%
    06:00 -5°C° 0 mm 2 mps 660 mmHg 64%
    07:00 -4°C° 0 mm 2 mps 660 mmHg 64%
    08:00 -3°C° 0 mm 2 mps 660 mmHg 64%
    09:00 -2°C° 0 mm 2 mps 660 mmHg 63%
    10:00 -1°C° 0.1 mm 2 mps 660 mmHg 63%
    11:00 +1°C° 0.1 mm 2 mps 660 mmHg 63%
    12:00 +1°C° 0.1 mm 3 mps 659 mmHg 63%
    13:00 +1°C° 0.2 mm 3 mps 659 mmHg 65%
    14:00 +1°C° 0.2 mm 3 mps 659 mmHg 67%
    15:00 +1°C° 0.2 mm 3 mps 659 mmHg 68%
    16:00 +2°C° 0.2 mm 2 mps 659 mmHg 71%
    17:00 +1°C° 0.2 mm 2 mps 659 mmHg 74%
    18:00 +1°C° 0.2 mm 2 mps 659 mmHg 76%
    19:00 -1°C° 0.1 mm 2 mps 660 mmHg 77%
    20:00 -1°C° 0.1 mm 2 mps 660 mmHg 77%
    21:00 +1°C° 0.1 mm 1 mps 660 mmHg 77%
    22:00 -1°C° 0.1 mm 2 mps 660 mmHg 77%
    23:00 -2°C° 0.1 mm 2 mps 661 mmHg 77%

    Day after tomorrow, 15 December, Saturday

    Time Temperature Precipitation Wind Pressure Humidity
    00:00 -2°C° 0.1 mm 2 mps 661 mmHg 77%
    01:00 -2°C° 0 mm 2 mps 661 mmHg 77%
    02:00 -3°C° 0 mm 2 mps 661 mmHg 77%
    03:00 -3°C° 0 mm 2 mps 661 mmHg 77%
    04:00 -3°C° 0 mm 2 mps 661 mmHg 76%
    05:00 -3°C° 0 mm 2 mps 661 mmHg 76%
    06:00 -4°C° 0 mm 2 mps 661 mmHg 75%
    07:00 -1°C° 0 mm 1 mps 661 mmHg 74%
    08:00 0°C° 0 mm 1 mps 662 mmHg 72%
    09:00 0°C° 0 mm 1 mps 662 mmHg 70%
    10:00 +2°C° 0 mm 1 mps 662 mmHg 69%
    11:00 +2°C° 0 mm 2 mps 662 mmHg 67%
    12:00 +3°C° 0 mm 2 mps 662 mmHg 65%
    13:00 +3°C° 0 mm 2 mps 661 mmHg 65%
    14:00 +3°C° 0 mm 2 mps 661 mmHg 65%
    15:00 +4°C° 0 mm 1 mps 661 mmHg 65%
    16:00 +3°C° 0 mm 1 mps 661 mmHg 65%
    17:00 +1°C° 0 mm 1 mps 661 mmHg 64%
    18:00 0°C° 0 mm 1 mps 661 mmHg 64%
    19:00 0°C° 0 mm 1 mps 661 mmHg 64%
    20:00 0°C° 0 mm 1 mps 662 mmHg 63%
    21:00 0°C° 0 mm 1 mps 662 mmHg 63%
    22:00 0°C° 0 mm 1 mps 661 mmHg 63%
    23:00 0°C° 0 mm 1 mps 661 mmHg 63%

    16 December, Sunday

    Time Temperature Precipitation Wind Pressure Humidity
    00:00 0°C° 0 mm 1 mps 661 mmHg 63%
    01:00 0°C° 0 mm 1 mps 661 mmHg 63%
    02:00 -1°C° 0 mm 1 mps 661 mmHg 63%
    03:00 -1°C° 0 mm 1 mps 661 mmHg 63%
    04:00 -1°C° 0 mm 1 mps 661 mmHg 63%
    05:00 -1°C° 0 mm 1 mps 661 mmHg 63%
    06:00 -1°C° 0 mm 1 mps 661 mmHg 63%
    07:00 0°C° 0 mm 1 mps 661 mmHg 62%
    08:00 +1°C° 0 mm 1 mps 661 mmHg 61%
    09:00 +2°C° 0 mm 1 mps 662 mmHg 61%
    10:00 +3°C° 0 mm 1 mps 662 mmHg 60%
    11:00 +4°C° 0 mm 2 mps 661 mmHg 60%
    12:00 +5°C° 0 mm 2 mps 661 mmHg 59%
    13:00 +5°C° 0 mm 2 mps 661 mmHg 59%
    14:00 +5°C° 0 mm 2 mps 661 mmHg 59%
    15:00 +5°C° 0 mm 2 mps 660 mmHg 59%
    16:00 +4°C° 0 mm 2 mps 660 mmHg 59%
    17:00 +3°C° 0 mm 2 mps 660 mmHg 59%
    18:00 +2°C° 0 mm 2 mps 660 mmHg 59%
    19:00 +2°C° 0 mm 2 mps 660 mmHg 59%
    20:00 +2°C° 0 mm 1 mps 660 mmHg 59%
    21:00 +2°C° 0 mm 1 mps 660 mmHg 59%
    22:00 +2°C° 0 mm 1 mps 660 mmHg 59%
    23:00 +2°C° 0 mm 1 mps 659 mmHg 59%

    17 December, Monday

    Time Temperature Precipitation Wind Pressure Humidity
    00:00 +2°C° 0 mm 1 mps 659 mmHg 59%
    01:00 +3°C° 0 mm 1 mps 659 mmHg 60%
    02:00 +3°C° 0 mm 1 mps 659 mmHg 60%
    03:00 +3°C° 0 mm 1 mps 658 mmHg 60%
    04:00 +3°C° 0 mm 1 mps 658 mmHg 61%
    05:00 +3°C° 0 mm 1 mps 658 mmHg 62%
    06:00 +3°C° 0 mm 1 mps 658 mmHg 63%
    07:00 +3°C° 0 mm 1 mps 658 mmHg 63%
    08:00 +4°C° 0 mm 1 mps 657 mmHg 64%
    09:00 +4°C° 0 mm 1 mps 657 mmHg 65%
    10:00 +5°C° 0 mm 1 mps 657 mmHg 65%
    11:00 +6°C° 0 mm 1 mps 656 mmHg 65%
    12:00 +7°C° 0 mm 1 mps 656 mmHg 65%
    13:00 +6°C° 0.2 mm 1 mps 656 mmHg 67%
    14:00 +6°C° 0.2 mm 1 mps 655 mmHg 69%
    15:00 +6°C° 0.2 mm 1 mps 655 mmHg 70%
    16:00 +5°C° 0.3 mm 1 mps 655 mmHg 73%
    17:00 +4°C° 0.3 mm 0 mps 655 mmHg 76%
    18:00 +3°C° 0.3 mm 0 mps 656 mmHg 79%
    19:00 +3°C° 0.4 mm 0 mps 656 mmHg 80%
    20:00 +3°C° 0.4 mm 0 mps 656 mmHg 81%
    21:00 +4°C° 0.4 mm 1 mps 656 mmHg 82%
    22:00 +4°C° 0.3 mm 1 mps 656 mmHg 82%
    23:00 +3°C° 0.3 mm 1 mps 656 mmHg 82%

    18 December, Tuesday

    Time Temperature Precipitation Wind Pressure Humidity
    00:00 +3°C° 0.3 mm 1 mps 655 mmHg 83%
    01:00 +3°C° 0.2 mm 1 mps 655 mmHg 83%
    02:00 +3°C° 0.2 mm 1 mps 655 mmHg 83%
    03:00 +3°C° 0.2 mm 1 mps 655 mmHg 83%
    04:00 +2°C° 0.1 mm 1 mps 655 mmHg 82%
    05:00 +2°C° 0.1 mm 1 mps 655 mmHg 82%
    06:00 +2°C° 0.1 mm 1 mps 655 mmHg 82%
    07:00 +2°C° 0.1 mm 1 mps 655 mmHg 80%
    08:00 +3°C° 0.1 mm 1 mps 656 mmHg 78%
    09:00 +3°C° 0.1 mm 1 mps 656 mmHg 77%
    10:00 +4°C° 0 mm 1 mps 656 mmHg 75%
    11:00 +5°C° 0 mm 1 mps 656 mmHg 74%
    12:00 +6°C° 0 mm 1 mps 656 mmHg 72%
    13:00 +6°C° 0 mm 1 mps 656 mmHg 71%
    14:00 +6°C° 0 mm 1 mps 656 mmHg 70%
    15:00 +6°C° 0 mm 1 mps 656 mmHg 70%
    16:00 +5°C° 0 mm 1 mps 656 mmHg 71%
    17:00 +3°C° 0 mm 1 mps 656 mmHg 73%
    18:00 +2°C° 0 mm 1 mps 656 mmHg 74%
    19:00 +2°C° 0 mm 1 mps 657 mmHg 74%
    20:00 +2°C° 0 mm 1 mps 657 mmHg 73%
    21:00 +1°C° 0 mm 1 mps 657 mmHg 73%
    22:00 +1°C° 0 mm 1 mps 657 mmHg 73%
    23:00 +1°C° 0 mm 1 mps 658 mmHg 73%
    Show more